< < Back
Terminal Aerodrome Forecast


Current Version              Previous Versions:   1  2  3  4  5  6  7  8  9  

Terminal Aerodrome Forecast

209
FTUS42 KFFC 270209 AAC
TAFPDK
TAF AMD
KPDK 270209Z 2702/2724 10005KT P6SM VCTS BKN060CB
     FM270300 10004KT P6SM SCT250
     FM271500 09007KT P6SM SCT045
     FM271900 10009KT P6SM SCT060=



Latest METAR

904
SAUS70 KWBC 270300 RRD
MTRPDK
METAR KPDK 270253Z 01004KT 10SM CLR 25/22 A3011 RMK AO2 LTG DSNT N AND
NW TSB0154E11 SLP176 60000 T02500217 51012


USA.gov is the U.S. government's official web portal to all federal, state and local government web resources and services.